Regional Weather Roundup
Issued by NWS

Home | Current Version | Previous Version | Text Only | Print | Product List | Glossary Off
Versions: 1 2 3 4 5 6 7 8 9 10 11 12 13 14 15 16 17 18 19 20 21 22 23 24 25 26 27 28 29 30 31 32 33 34 35 36 37 38 39 40 41 42 43 44 45 46 47 48 49 50

000
ASUS43 KMPX 230210
RWRMN
WEATHER ROUNDUP FOR MINNESOTA
NATIONAL WEATHER SERVICE TWIN CITIES/CHANHASSEN MN
900 PM CDT FRI AUG 22 2014


NOTE: "FAIR" INDICATES FEW OR NO CLOUDS BELOW 12,000 FEET WITH NO
SIGNIFICANT WEATHER AND/OR OBSTRUCTIONS TO VISIBILITY. N/A MEANS
CURRENT SKY AND/OR WEATHER CONDITIONS ARE NOT AVAILABLE.

MNZ060>063-068>070-230300-
   Twin Cities Metro

CITY           SKY/WX    TMP DP  RH WIND       PRES   REMARKS
TWIN CITIES    PTCLDY    73  67  81 N6        30.01R
ST PAUL        CLOUDY    74  68  81 VRB3      30.01R
CRYSTAL        CLEAR     71  66  84 CALM      30.00R
BLAINE         PTCLDY    73  70  88 NE3       30.01R
LAKEVILLE      CLOUDY    73  66  78 N8        30.02R
EDEN PRAIRIE   CLEAR     73  67  81 NE5       30.00R
SOUTH ST PAUL  CLOUDY    75  68  79 N6        30.00R
LAKE ELMO      CLOUDY    72  70  94 CALM      30.02R
$$
MNZ001>005-007-008-013>017-022>024-027-028-230300-
   Northwest Minnesota

CITY           SKY/WX    TMP DP  RH WIND       PRES   REMARKS
BEMIDJI        FOG       66  66  99 CALM      30.03R VSB 3/4
HALLOCK        CLOUDY    66  63  88 N10       30.08R
ROSEAU         MOCLDY    68  63  83 N7        30.06R
WARROAD        PTCLDY    66  63  88 CALM      30.06R
THIEF RVR FALL CLOUDY    66  64  94 N12       30.05R
CROOKSTON      CLOUDY    66  64  94 N12       30.06R
FOSSTON        CLOUDY    66  64  94 CALM      30.04R
DETROIT LAKES  MOCLDY    70  64  83 NW8       30.06R
MOORHEAD       CLOUDY    70  70 100 N7        30.05R
PARK RAPIDS    CLEAR     71  69  93 CALM      30.02S
MAHNOMEN       CLOUDY    68  66  95 NW5       30.04R
$$
MNZ006-009>011-018-025>026-230300-
   North Central Minnesota

CITY           SKY/WX    TMP DP  RH WIND       PRES   REMARKS
BAUDETTE       PTCLDY    67  65  93 N6        30.05R
FLAG ISLAND    PTCLDY    70  64  83 N3        30.05R
INTL FALLS     MOCLDY    68  65  90 N5        30.04R
WASKISH        CLOUDY    70  66  88 CALM      30.04R
BIG FORK       PTCLDY    70  66  88 CALM      30.04R
LONGVILLE      LGT RAIN  72  70  94 CALM      30.02R
GRAND RAPIDS   CLOUDY    70  66  88 SE3       30.03S
CRANE LAKE     PTCLDY    63  61  94 CALM      30.06R
ORR            CLOUDY    68  64  88 CALM      30.02S
COOK           CLOUDY    70  64  83 CALM      30.04S
WALKER         FAIR      67  65  96 CALM      30.03R
$$
MNZ012-019>021-037-230300-
   Northeast Minnesota

CITY           SKY/WX    TMP DP  RH WIND       PRES   REMARKS
DULUTH         FOG       62  60  93 E6        30.06R VSB 1/4
ELY            MOCLDY    66  63  88 CALM      30.06R
HIBBING        CLOUDY    70  66  87 CALM      30.04R
EVELETH        CLOUDY    70  68  94 CALM      30.05R
DULUTH HARBOR  CLOUDY    63  61  94 NE8       30.05R
TWO HARBORS    CLOUDY    63  57  82 NE5       30.04S
SILVER BAY     MOCLDY    63  63 100 N3        30.04R
GRAND MARAIS     N/A     63  61  93 CALM      30.04S
G MARAIS ARPRT CLOUDY    63  57  82 NE5       30.09S FOG
$$
MNZ029>031-032-039>041-046>048-054>057-064-230300-
   West Central Minnesota

CITY           SKY/WX    TMP DP  RH WIND       PRES   REMARKS
FERGUS FALLS   PTCLDY    70  66  88 N5        30.02R
WHEATON        PTCLDY    68  64  88 N7        30.03R
MORRIS         PTCLDY    72  70  94 N6        30.01R
ALEXANDRIA     CLOUDY    74  68  81 N9        30.04R
ELBOW LAKE     FAIR      70  67  92 N3        30.02R
WADENA         MOCLDY    72  66  83 NW5       30.03R
GLENWOOD       PTCLDY    73  70  88 N5        30.04R
APPLETON       MOCLDY    75  70  83 N7        29.99F
BENSON         PTCLDY    75  70  83 NE6       30.01R
ORTONVILLE     MOCLDY    73  68  83 NE10      30.00S
MADISON        MOCLDY    77  72  83 NE7       30.00S
WILLMAR        FAIR      75  70  83 E5        30.03R
$$
MNZ033>034-036-042>043-049>051-058-059-230300-
   Central Minnesota

CITY           SKY/WX    TMP DP  RH WIND       PRES   REMARKS
ST CLOUD       PTCLDY    71  68  90 CALM      30.02R
SAUK CENTRE    FAIR      72  69  89 CALM      30.03R
PAYNESVILLE    PTCLDY    71  67  87 NE3       30.03R
AITKIN         PTCLDY    70  64  83 CALM      30.02R
PINE RIVER     CLOUDY    73  68  83 CALM      30.05R
BRAINERD       PTCLDY    69  68  96 SE5       30.03R
STAPLES        CLOUDY    72  68  88 CALM      30.03R
LONG PRAIRIE   MOCLDY    70  68  94 NE3       30.03R
LITTLE FALLS   PTCLDY    68  64  88 CALM      30.03R
LITCHFIELD     CLEAR     73  72  94 CALM      30.03R
BUFFALO        CLEAR     71  66  86 CALM      30.02R
MAPLE LAKE     PTCLDY    71  69  95 NE3       30.02R
$$
MNZ037-044-045-052-053-230300-
   East Central Minnesota

CITY           SKY/WX    TMP DP  RH WIND       PRES   REMARKS
PRINCETON      CLEAR     70  66  88 NE2       30.02R
MORA           PTCLDY    66  63  88 CALM      30.04R
CAMBRIDGE      CLEAR     72  63  73 CALM      30.01R
RUSH CITY      CLOUDY    70  66  88 NE3       30.03R
MOOSE LAKE     CLOUDY    63  61  94 CALM      30.03R
HINCKLEY       CLOUDY    68  64  88 NE5       30.04R
CLOQUET        CLOUDY    63  61  94 E6        30.05R FOG
MCGREGOR       PTCLDY    66  64  94 E5        30.04R
$$
MNZ071>073-080-081-089-090-097-098-230300-
   Southwest Minnesota

CITY           SKY/WX    TMP DP  RH WIND       PRES   REMARKS
MONTEVIDEO     PTCLDY    75  70  83 NE6       30.01R
GRANITE FALLS  PTCLDY    73  72  94 CALM      30.01R
CANBY          MOCLDY    75  70  85 E3        30.01S
MARSHALL       PTCLDY    75  68  78 NE5       29.99S
REDWOOD FALLS  PTCLDY    78  70  76 CALM      30.00R
OLIVIA         PTCLDY    77  70  78 E5        30.01R
PIPESTONE      MOCLDY    75  70  83 E5        30.01S
WINDOM         PTCLDY    73  70  88 CALM      30.02R
WORTHINGTON      N/A     73  72  94 E7        30.03R
JACKSON        MOCLDY    72  68  88 E5        30.02R
TRACY          PTCLDY    75  72  89 NE3       30.01S
SLAYTON        PTCLDY    74  71  90 CALM      30.03R
$$
MNZ065>067-074>077-082>085-091>093-230300-
   South Central Minnesota

CITY           SKY/WX    TMP DP  RH WIND       PRES   REMARKS
MANKATO        CLEAR     73  66  78 NE8       30.01R
NEW ULM        PTCLDY    75  72  88 E5        30.00R
ST JAMES       CLEAR     75  70  83 NE3       30.01R
FAIRMONT       PTCLDY    68  64  88 NE5       30.01R
GLENCOE        CLEAR     72  68  86 CALM      30.01R
FARIBAULT      CLEAR     73  66  78 CALM      30.03R
OWATONNA       PTCLDY    73  68  83 CALM      30.02R
WASECA         PTCLDY    72  64  78 N6        30.03R
ALBERT LEA     MOCLDY    73  70  88 N7        30.01R
$$
MNZ078>079-086>088-094>096-230300-
   Southeast Minnesota

CITY           SKY/WX    TMP DP  RH WIND       PRES   REMARKS
ROCHESTER      PTCLDY    74  69  85 N8        30.02R
RED WING       CLEAR     73  70  88 CALM      29.99R
STANTON        PTCLDY    73  68  84 N5        30.00R
DODGE CENTER   PTCLDY    72  70  94 N6        30.02R
WINONA         PTCLDY    73  70  88 CALM      29.97R
AUSTIN         MOCLDY    73  70  88 N5        30.00R
PRESTON        PTCLDY    74  73  99 CALM      30.01R
$$
ABBREVIATIONS USED IN REMARKS
   TC - TEMPERATURES IN CELSIUS
  WCI - WIND CHILL INDEX
   HX - HEAT INDEX
  VSB - VISIBILITY
$$



USA.gov is the U.S. government's official web portal to all federal, state and local government web resources and services.